Flight Track Log - Related Links

Times and Time Zones

All times are in EDT time to prevent confusion due to time zone crossing. See the SWA3497 flight status page for this flight to view local times or setup timezone preferences in your user account.

Time Position Orientation Groundspeed Altitude Reporting Facility
EDT Latitude Longitude Course Direction KTS MPH feet Rate Location/Type
Sun 09:55:04 AM 38.9500 -77.5167 252° West 168 193 1,900  Level Potomac TRACON
Sun 09:56:05 AM 38.9333 -77.5833 252° West 220 253 3,900 2,380 Climbing Potomac TRACON
Sun 09:57:05 AM 38.9167 -77.6667 256° West 247 284 6,700 2,632 Climbing Potomac TRACON
Sun 09:57:59 AM 38.9000 -77.7500 256° West 259 298 8,900 2,620 Climbing Potomac TRACON
Sun 09:58:16 AM 38.8978 -77.7733 263° West 265 305 9,800 2,805 Climbing Washington Center
Sun 09:59:16 AM 38.9083 -77.8806 277° West 290 334 12,500 3,650 Climbing Washington Center
Sun 10:00:16 AM 38.9250 -77.9825 282° West 301 346 17,100 3,521 Climbing Washington Center
Sun 10:01:17 AM 38.9397 -78.0869 280° West 301 346 19,600 2,650 Climbing Washington Center
Sun 10:02:16 AM 38.9519 -78.1994 278° West 307 353 22,400 3,025 Climbing Washington Center
Sun 10:03:16 AM 38.9267 -78.3028 253° West 307 353 25,600 1,850 Climbing Washington Center
Sun 10:04:16 AM 38.9014 -78.4083 253° West 307 353 26,100 700 Climbing Washington Center
Sun 10:05:16 AM 38.9108 -78.5314 276° West 324 373 27,000 1,100 Climbing Washington Center
Sun 10:06:16 AM 38.9242 -78.6681 277° West 360 414 28,300 1,500 Climbing Washington Center
Sun 10:07:16 AM 38.9392 -78.8075 278° West 392 451 30,000 850 Climbing Washington Center
Sun 10:08:16 AM 38.9519 -78.9497 277° West 399 459 30,000 50 Level Washington Center
Sun 10:09:16 AM 38.9647 -79.0889 277° West 405 466 30,100 1,250 Climbing Washington Center
Sun 10:10:16 AM 38.9794 -79.2258 278° West 405 466 32,500 2,050 Climbing Washington Center
Sun 10:11:16 AM 38.9897 -79.3628 276° West 399 459 34,200 1,550 Climbing Washington Center
Sun 10:12:16 AM 39.0022 -79.4969 277° West 393 452 35,600 1,350 Climbing Washington Center
Sun 10:13:16 AM 39.0125 -79.6256 276° West 393 452 36,900 1,150 Climbing Washington Center
Sun 10:14:16 AM 39.0244 -79.7625 276° West 399 459 37,900 550 Climbing Washington Center
Sun 10:15:16 AM 39.0381 -79.9103 277° West 384 442 38,000 29 Climbing Washington Center
Sun 10:17:42 AM 39.0633 -80.2278 276° West 390 449 38,000  Level Indianapolis Center
Sun 10:18:44 AM 39.0742 -80.3653 276° West 387 445 38,000  Level Indianapolis Center
Sun 10:19:46 AM 39.0867 -80.5033 277° West 389 448 38,000  Level Indianapolis Center
Sun 10:20:48 AM 39.0983 -80.6697 275° West 389 448 38,000  Level Indianapolis Center
Sun 10:21:50 AM 39.1089 -80.8081 276° West 391 450 38,000  Level Indianapolis Center
Sun 10:22:52 AM 39.1203 -80.9478 276° West 394 453 38,000  Level Indianapolis Center
Sun 10:23:53 AM 39.1319 -81.0867 276° West 392 451 38,000  Level Indianapolis Center
Sun 10:24:55 AM 39.1817 -81.2181 296° West 406 467 38,000  Level Indianapolis Center
Sun 10:25:57 AM 39.2350 -81.3469 298° West 411 473 38,000  Level Indianapolis Center
Sun 10:26:59 AM 39.2969 -81.5008 298° West 406 467 38,000  Level Indianapolis Center
Sun 10:28:01 AM 39.3486 -81.6292 298° West 404 465 38,000  Level Indianapolis Center
Sun 10:29:02 AM 39.3997 -81.7583 297° West 405 466 38,000  Level Indianapolis Center
Sun 10:30:04 AM 39.4525 -81.8850 298° West 403 464 38,000  Level Indianapolis Center
Sun 10:31:06 AM 39.5039 -82.0128 298° West 401 461 38,000  Level Indianapolis Center
Sun 10:32:08 AM 39.5597 -82.1558 297° West 400 460 38,000  Level Indianapolis Center
Sun 10:33:10 AM 39.6106 -82.2858 297° West 400 460 38,000  Level Indianapolis Center
Sun 10:34:11 AM 39.6628 -82.4153 298° West 401 461 38,000  Level Indianapolis Center
Sun 10:35:13 AM 39.7133 -82.5439 297° West 399 459 38,000  Level Indianapolis Center
Sun 10:36:15 AM 39.7639 -82.6736 297° West 399 459 38,000  Level Indianapolis Center
Sun 10:37:17 AM 39.8142 -82.8014 297° West 395 455 38,000  Level Indianapolis Center
Sun 10:38:18 AM 39.8636 -82.9306 297° West 395 455 38,000  Level Indianapolis Center
Sun 10:39:20 AM 39.9225 -83.0817 297° West 399 459 38,000  Level Indianapolis Center
Sun 10:40:22 AM 39.9708 -83.2108 296° West 398 458 38,000  Level Indianapolis Center
Sun 10:41:24 AM 40.0228 -83.3406 298° West 399 459 38,000  Level Indianapolis Center
Sun 10:42:25 AM 40.0731 -83.4725 297° West 401 461 38,000  Level Indianapolis Center
Sun 10:43:27 AM 40.1231 -83.6044 296° West 402 463 38,000  Level Indianapolis Center
Sun 10:44:29 AM 40.1725 -83.7350 296° West 400 460 38,000  Level Indianapolis Center
Sun 10:45:31 AM 40.2242 -83.8694 297° West 405 466 38,000  Level Indianapolis Center
Sun 10:46:33 AM 40.2792 -84.0183 296° West 404 465 38,000 -146 Level Indianapolis Center
Sun 10:47:34 AM 40.3289 -84.1531 296° West 407 468 37,700 -634 Descending Indianapolis Center
Sun 10:48:36 AM 40.3794 -84.2872 296° West 407 468 36,700 -968 Descending Indianapolis Center
Sun 10:49:38 AM 40.4294 -84.4206 296° West 405 466 35,700 -927 Descending Indianapolis Center
Sun 10:50:39 AM 40.4808 -84.5531 297° West 404 465 34,800 -927 Descending Indianapolis Center
Sun 10:51:41 AM 40.5625 -84.6658 314° West 428 493 33,800 -919 Descending Indianapolis Center
Sun 10:52:43 AM 40.6503 -84.7747 317° Northwest 429 494 32,900 -918 Descending Indianapolis Center
Sun 10:53:19 AM 40.7050 -84.8406 318° Northwest 428 493 32,300 -990 Descending Chicago Center
Sun 10:54:20 AM 40.7919 -84.9497 316° Northwest 430 495 31,300 -927 Descending Chicago Center
Sun 10:55:22 AM 40.8792 -85.0583 317° Northwest 431 496 30,400 -919 Descending Chicago Center
Sun 10:56:24 AM 40.9614 -85.1764 313° West 435 501 29,400 -1,073 Descending Chicago Center
Sun 10:57:25 AM 41.0569 -85.3200 311° West 433 498 28,200 -1,073 Descending Chicago Center
Sun 10:58:27 AM 41.1350 -85.4375 311° West 427 491 27,200 -968 Descending Chicago Center
Sun 10:59:29 AM 41.2125 -85.5539 312° West 419 482 26,200 -1,073 Descending Chicago Center
Sun 11:00:30 AM 41.2881 -85.6672 312° West 410 472 25,000 -585 Descending Chicago Center
Sun 11:01:32 AM 41.3611 -85.7803 311° West 401 461 25,000 -878 Level Chicago Center
Sun 11:02:33 AM 41.4353 -85.8911 312° West 399 459 23,200 -2,439 Descending Chicago Center
Sun 11:03:35 AM 41.5056 -85.9983 311° West 398 458 20,000 -2,927 Descending Chicago Center
Sun 11:04:36 AM 41.5236 -86.1447 279° West 391 450 17,200 -3,073 Descending Chicago Center
Sun 11:05:38 AM 41.5231 -86.2872 270° West 386 444 13,700 -2,952 Descending Chicago Center
Sun 11:06:40 AM 41.5222 -86.4522 270° West 373 429 11,100 -1,707 Descending Chicago Center
Sun 11:07:41 AM 41.5214 -86.5850 270° West 361 415 10,200 -537 Descending Chicago Center
Sun 11:08:43 AM 41.5197 -86.7244 269° West 357 411 10,000 -98 Descending Chicago Center
Sun 11:09:44 AM 41.5200 -86.8447 270° West 328 377 10,000 -537 Level Chicago Center
Sun 11:10:46 AM 41.5178 -86.9442 268° West 272 313 8,900 -1,171 Descending Chicago Center
Sun 11:11:47 AM 41.5167 -87.0428 269° West 268 308 7,600 -1,377 Descending Chicago Center
Sun 11:12:48 AM 41.5167 -87.1500 270° West 264 304 6,100 -1,339 Descending Chicago TRACON
Sun 11:13:48 AM 41.5167 -87.2500 270° West 268 308 4,900 -1,000 Descending Chicago TRACON
Sun 11:14:48 AM 41.5333 -87.3500 283° West 262 302 4,100 -444 Descending Chicago TRACON
Sun 11:15:36 AM 41.5500 -87.4167 288° West 261 300 4,100 -185 Level Chicago TRACON
Sun 11:15:53 AM 41.5481 -87.4464 265° West 262 302 3,900 -152 Descending Chicago Center
Sun 11:16:55 AM 41.5592 -87.5406 279° West 261 300 3,900  Level Chicago Center
Sun 11:17:56 AM 41.5708 -87.6347 279° West 260 299 3,900  Level Chicago Center
Sun 11:18:58 AM 41.5822 -87.7278 279° West 259 298 3,900 -390 Level Chicago Center
Sun 11:19:59 AM 41.6003 -87.8047 287° West 241 277 3,100 -788 Descending Chicago Center
Sun 11:20:37 AM 41.6333 -87.8500 314° West 223 257 2,600 -367 Descending Chicago TRACON
Sun 11:21:37 AM 41.6667 -87.8833 323° Northwest 184 212 2,500 -140 Descending Chicago TRACON
Sun 11:22:03 AM 41.6917 -87.8681 25° Northeast 194 223 2,400 -222 Descending Chicago Center
Sun 11:22:31 AM 41.7167 -87.8500 28° Northeast 175 201 2,300 -409 Descending Chicago TRACON
Sun 11:23:31 AM 41.7500 -87.8333 20° North 182 209 1,800 -286 Descending Chicago TRACON
Sun 11:24:37 AM 41.8000 -87.8167 14° North 138 159 1,700 -300 Descending Chicago TRACON
Sun 11:25:31 AM 41.8000 -87.7833 90° East 138 159 1,200 -556 Descending Chicago TRACON

Login

Don't have an account? Register now (free) for customized features, flight alerts, and more!